Year,Month,Day,Hour,Minute,Value (Times are PST for windgust in km/hr)
2007,02,12,00,00,3.20
2007,02,12,00,01,3.20
2007,02,12,00,02,1.60
2007,02,12,00,03,1.60
2007,02,12,00,04,1.60
2007,02,12,00,05,0.00
2007,02,12,00,06,0.00
2007,02,12,00,07,0.00
2007,02,12,00,08,0.00
2007,02,12,00,09,0.00
2007,02,12,00,10,1.60
2007,02,12,00,11,1.60
2007,02,12,00,12,0.00
2007,02,12,00,13,0.00
2007,02,12,00,14,0.00
2007,02,12,00,15,0.00
2007,02,12,00,16,0.00
2007,02,12,02,08,1.60
2007,02,12,02,09,1.60
2007,02,12,02,10,1.60
2007,02,12,02,11,1.60
2007,02,12,02,12,1.60
2007,02,12,02,13,3.20
2007,02,12,02,14,4.80
2007,02,12,02,15,1.60
2007,02,12,02,16,0.00
2007,02,12,02,17,0.00
2007,02,12,02,18,0.00
2007,02,12,02,19,0.00
2007,02,12,02,20,1.60
2007,02,12,02,21,1.60
2007,02,12,02,22,1.60
2007,02,12,02,23,0.00
2007,02,12,02,24,0.00
2007,02,12,02,25,1.60
2007,02,12,02,26,3.20
2007,02,12,02,27,1.60
2007,02,12,02,28,1.60
2007,02,12,02,29,0.00
2007,02,12,02,30,0.00
2007,02,12,02,31,0.00
2007,02,12,02,32,0.00
2007,02,12,02,33,0.00
2007,02,12,02,34,0.00
2007,02,12,02,35,1.60
2007,02,12,02,36,1.60
2007,02,12,02,37,0.00
2007,02,12,02,38,0.00
2007,02,12,02,39,0.00
2007,02,12,02,40,0.00
2007,02,12,02,41,0.00
2007,02,12,02,42,0.00
2007,02,12,02,43,0.00
2007,02,12,02,44,3.20
2007,02,12,02,45,3.20
2007,02,12,02,46,1.60
2007,02,12,02,47,1.60
2007,02,12,02,48,1.60
2007,02,12,02,49,0.00
2007,02,12,02,50,1.60
2007,02,12,02,51,1.60
2007,02,12,02,52,1.60
2007,02,12,02,53,0.00
2007,02,12,02,54,0.00
2007,02,12,02,55,0.00
2007,02,12,02,56,1.60
2007,02,12,02,57,1.60
2007,02,12,02,58,0.00
2007,02,12,02,59,1.60
2007,02,12,03,00,0.00
2007,02,12,03,01,0.00
2007,02,12,03,02,1.60
2007,02,12,03,03,0.00
2007,02,12,03,04,1.60
2007,02,12,03,05,0.00
2007,02,12,03,06,0.00
2007,02,12,03,07,0.00
2007,02,12,03,08,0.00
2007,02,12,03,09,0.00
2007,02,12,03,10,0.00
2007,02,12,03,11,0.00
2007,02,12,03,12,0.00
2007,02,12,03,13,0.00
2007,02,12,03,14,3.20
2007,02,12,03,15,1.60
2007,02,12,03,16,3.20
2007,02,12,03,17,3.20
2007,02,12,03,18,1.60
2007,02,12,03,19,1.60
2007,02,12,03,20,3.20
2007,02,12,03,21,1.60
2007,02,12,03,22,1.60
2007,02,12,03,23,1.60
2007,02,12,03,24,1.60
2007,02,12,03,25,1.60
2007,02,12,03,26,0.00
2007,02,12,03,27,0.00
2007,02,12,03,28,0.00
2007,02,12,03,29,0.00
2007,02,12,03,30,0.00
2007,02,12,03,31,0.00
2007,02,12,03,32,1.60
2007,02,12,03,33,1.60
2007,02,12,03,34,3.20
2007,02,12,03,35,1.60
2007,02,12,03,36,1.60
2007,02,12,03,37,0.00
2007,02,12,03,38,0.00
2007,02,12,03,39,0.00
2007,02,12,03,40,0.00
2007,02,12,03,41,0.00
2007,02,12,03,42,1.60
2007,02,12,03,43,1.60
2007,02,12,03,44,1.60
2007,02,12,03,45,0.00
2007,02,12,03,46,0.00
2007,02,12,03,47,0.00
2007,02,12,03,48,0.00
2007,02,12,03,49,0.00
2007,02,12,03,50,1.60
2007,02,12,03,51,1.60
2007,02,12,03,52,1.60
2007,02,12,03,53,1.60
2007,02,12,03,54,0.00
2007,02,12,03,55,1.60
2007,02,12,03,56,1.60
2007,02,12,03,57,3.20
2007,02,12,03,58,3.20
2007,02,12,03,59,3.20
2007,02,12,04,00,3.20
2007,02,12,04,01,3.20
2007,02,12,04,02,1.60
2007,02,12,04,03,1.60
2007,02,12,04,04,1.60
2007,02,12,04,05,1.60
2007,02,12,04,06,1.60
2007,02,12,04,07,1.60
2007,02,12,04,08,3.20
2007,02,12,04,09,3.20
2007,02,12,04,10,3.20
2007,02,12,04,11,3.20
2007,02,12,04,12,3.20
2007,02,12,04,13,3.20
2007,02,12,04,14,3.20
2007,02,12,04,15,3.20
2007,02,12,04,16,3.20
2007,02,12,04,17,1.60
2007,02,12,04,18,3.20
2007,02,12,04,19,4.80
2007,02,12,04,20,3.20
2007,02,12,04,21,3.20
2007,02,12,04,22,3.20
2007,02,12,04,23,1.60
2007,02,12,04,24,3.20
2007,02,12,04,25,3.20
2007,02,12,04,26,3.20
2007,02,12,04,27,3.20
2007,02,12,04,28,4.80
2007,02,12,04,29,3.20
2007,02,12,04,30,3.20
2007,02,12,04,31,3.20
2007,02,12,04,32,3.20
2007,02,12,04,33,4.80
2007,02,12,04,34,1.60
2007,02,12,04,35,3.20
2007,02,12,04,36,4.80
2007,02,12,04,37,4.80
2007,02,12,04,38,4.80
2007,02,12,04,39,4.80
2007,02,12,04,40,3.20
2007,02,12,04,41,3.20
2007,02,12,04,42,3.20
2007,02,12,04,43,3.20
2007,02,12,04,44,3.20
2007,02,12,04,45,6.40
2007,02,12,04,46,6.40
2007,02,12,04,47,4.80
2007,02,12,04,48,4.80
2007,02,12,04,49,4.80
2007,02,12,04,50,4.80
2007,02,12,04,51,4.80
2007,02,12,04,52,3.20
2007,02,12,04,53,4.80
2007,02,12,04,54,1.60
2007,02,12,04,55,4.80
2007,02,12,04,56,4.80
2007,02,12,04,57,6.40
2007,02,12,04,58,6.40
2007,02,12,04,59,4.80
2007,02,12,05,00,6.40
2007,02,12,05,01,8.10
2007,02,12,05,02,6.40
2007,02,12,05,03,4.80
2007,02,12,05,04,3.20
2007,02,12,05,05,6.40
2007,02,12,05,06,6.40
2007,02,12,05,07,8.10
2007,02,12,05,08,8.10
2007,02,12,05,09,9.60
2007,02,12,05,10,6.40
2007,02,12,05,11,8.10
2007,02,12,05,12,4.80
2007,02,12,05,13,4.80
2007,02,12,05,14,4.80
2007,02,12,05,15,6.40
2007,02,12,05,16,4.80
2007,02,12,05,17,4.80
2007,02,12,05,18,6.40
2007,02,12,05,19,6.40
2007,02,12,05,20,6.40
2007,02,12,05,21,4.80
2007,02,12,05,22,4.80
2007,02,12,05,23,4.80
2007,02,12,05,24,3.20
2007,02,12,05,25,3.20
2007,02,12,05,26,3.20
2007,02,12,05,27,4.80
2007,02,12,05,28,6.40
2007,02,12,05,29,6.40
2007,02,12,05,30,6.40
2007,02,12,05,31,6.40
2007,02,12,05,32,8.10
2007,02,12,05,33,8.10
2007,02,12,05,34,6.40
2007,02,12,05,35,6.40
2007,02,12,05,36,6.40
2007,02,12,05,37,6.40
2007,02,12,05,38,4.80
2007,02,12,05,39,8.10
2007,02,12,05,40,4.80
2007,02,12,05,41,6.40
2007,02,12,05,42,3.20
2007,02,12,05,43,6.40
2007,02,12,05,44,4.80
2007,02,12,05,45,6.40
2007,02,12,05,46,4.80
2007,02,12,05,47,4.80
2007,02,12,05,48,6.40
2007,02,12,05,49,6.40
2007,02,12,05,50,6.40
2007,02,12,05,51,6.40
2007,02,12,05,52,4.80
2007,02,12,05,53,4.80
2007,02,12,05,54,4.80
2007,02,12,05,55,6.40
2007,02,12,05,56,4.80
2007,02,12,05,57,6.40
2007,02,12,05,58,4.80
2007,02,12,05,59,4.80
2007,02,12,06,00,4.80
2007,02,12,06,01,4.80
2007,02,12,06,02,6.40
2007,02,12,06,03,4.80
2007,02,12,06,04,4.80
2007,02,12,06,05,4.80
2007,02,12,06,06,4.80
2007,02,12,06,07,3.20
2007,02,12,06,08,6.40
2007,02,12,06,09,6.40
2007,02,12,06,10,8.10
2007,02,12,06,11,4.80
2007,02,12,06,12,8.10
2007,02,12,06,13,8.10
2007,02,12,06,14,6.40
2007,02,12,06,15,6.40
2007,02,12,06,16,4.80
2007,02,12,06,17,3.20
2007,02,12,06,18,4.80
2007,02,12,06,19,4.80
2007,02,12,06,20,4.80
2007,02,12,06,21,4.80
2007,02,12,06,22,4.80
2007,02,12,06,23,4.80
2007,02,12,06,24,4.80
2007,02,12,06,25,4.80
2007,02,12,06,26,6.40
2007,02,12,06,27,6.40
2007,02,12,06,28,3.20
2007,02,12,06,29,4.80
2007,02,12,06,30,6.40
2007,02,12,06,31,6.40
2007,02,12,06,32,3.20
2007,02,12,06,33,3.20
2007,02,12,06,34,4.80
2007,02,12,06,35,6.40
2007,02,12,06,36,4.80
2007,02,12,06,37,6.40
2007,02,12,06,38,6.40
2007,02,12,06,39,6.40
2007,02,12,06,40,6.40
2007,02,12,06,41,4.80
2007,02,12,06,42,4.80
2007,02,12,06,43,0.00
2007,02,12,06,44,6.40
2007,02,12,06,45,8.10
2007,02,12,06,46,4.80
2007,02,12,06,47,3.20
2007,02,12,06,48,4.80
2007,02,12,06,49,4.80
2007,02,12,06,50,4.80
2007,02,12,06,51,4.80
2007,02,12,06,52,6.40
2007,02,12,06,53,6.40
2007,02,12,06,54,8.10
2007,02,12,06,55,8.10
2007,02,12,06,56,6.40
2007,02,12,06,57,6.40
2007,02,12,06,58,6.40
2007,02,12,06,59,6.40
2007,02,12,07,00,8.10
2007,02,12,07,01,8.10
2007,02,12,07,02,6.40
2007,02,12,07,03,6.40
2007,02,12,07,04,8.10
2007,02,12,07,05,3.20
2007,02,12,07,06,4.80
2007,02,12,07,07,4.80
2007,02,12,07,08,4.80
2007,02,12,07,09,4.80
2007,02,12,07,10,4.80
2007,02,12,07,11,4.80
2007,02,12,07,12,6.40
2007,02,12,07,13,6.40
2007,02,12,07,14,4.80
2007,02,12,07,15,3.20
2007,02,12,07,16,6.40
2007,02,12,07,17,6.40
2007,02,12,07,18,4.80
2007,02,12,07,19,4.80
2007,02,12,07,20,4.80
2007,02,12,07,21,4.80
2007,02,12,07,22,8.10
2007,02,12,07,23,6.40
2007,02,12,07,24,6.40
2007,02,12,07,25,8.10
2007,02,12,07,26,8.10
2007,02,12,07,27,8.10
2007,02,12,07,28,6.40
2007,02,12,07,29,6.40
2007,02,12,07,30,3.20
2007,02,12,07,31,3.20
2007,02,12,07,32,4.80
2007,02,12,07,33,6.40
2007,02,12,07,34,4.80
2007,02,12,07,35,6.40
2007,02,12,07,36,4.80
2007,02,12,07,37,6.40
2007,02,12,07,38,6.40
2007,02,12,07,39,6.40
2007,02,12,07,40,6.40
2007,02,12,07,41,3.20
2007,02,12,07,42,3.20
2007,02,12,07,43,4.80
2007,02,12,07,44,6.40
2007,02,12,07,45,6.40
2007,02,12,07,46,8.10
2007,02,12,07,47,8.10
2007,02,12,07,48,8.10
2007,02,12,07,49,6.40
2007,02,12,07,50,4.80
2007,02,12,07,51,3.20
2007,02,12,07,52,6.40
2007,02,12,07,53,4.80
2007,02,12,07,54,6.40
2007,02,12,07,55,6.40
2007,02,12,07,56,4.80
2007,02,12,07,57,6.40
2007,02,12,07,58,6.40
2007,02,12,07,59,4.80
2007,02,12,08,00,8.10
2007,02,12,08,01,6.40
2007,02,12,08,02,3.20
2007,02,12,08,03,4.80
2007,02,12,08,04,4.80
2007,02,12,08,05,4.80
2007,02,12,08,06,4.80
2007,02,12,08,07,4.80
2007,02,12,08,08,4.80
2007,02,12,08,09,4.80
2007,02,12,08,10,4.80
2007,02,12,08,11,4.80
2007,02,12,08,12,6.40
2007,02,12,08,13,6.40
2007,02,12,08,14,3.20
2007,02,12,08,15,4.80
2007,02,12,08,16,4.80
2007,02,12,08,17,1.60
2007,02,12,08,18,1.60
2007,02,12,08,19,3.20
2007,02,12,08,20,6.40
2007,02,12,08,21,6.40
2007,02,12,08,22,3.20
2007,02,12,08,23,3.20
2007,02,12,08,24,6.40
2007,02,12,08,25,4.80
2007,02,12,08,26,4.80
2007,02,12,08,27,4.80
2007,02,12,08,28,4.80
2007,02,12,08,29,4.80
2007,02,12,08,30,4.80
2007,02,12,08,31,4.80
2007,02,12,08,32,9.60
2007,02,12,08,33,6.40
2007,02,12,08,34,6.40
2007,02,12,08,35,8.10
2007,02,12,08,36,8.10
2007,02,12,08,37,4.80
2007,02,12,08,38,8.10
2007,02,12,08,39,6.40
2007,02,12,08,40,6.40
2007,02,12,08,41,6.40
2007,02,12,08,42,6.40
2007,02,12,08,43,6.40
2007,02,12,08,44,9.60
2007,02,12,08,45,6.40
2007,02,12,08,46,6.40
2007,02,12,08,47,6.40
2007,02,12,08,48,6.40
2007,02,12,08,49,8.10
2007,02,12,08,50,8.10
2007,02,12,08,51,8.10
2007,02,12,08,52,6.40
2007,02,12,08,53,8.10
2007,02,12,08,54,6.40
2007,02,12,08,55,6.40
2007,02,12,08,56,4.80
2007,02,12,08,57,8.10
2007,02,12,08,58,6.40
2007,02,12,08,59,4.80
2007,02,12,09,00,4.80
2007,02,12,09,01,6.40
2007,02,12,09,02,8.10
2007,02,12,09,03,6.40
2007,02,12,09,04,6.40
2007,02,12,09,05,8.10
2007,02,12,09,06,6.40
2007,02,12,09,07,6.40
2007,02,12,09,08,4.80
2007,02,12,09,09,9.60
2007,02,12,09,10,6.40
2007,02,12,09,11,6.40
2007,02,12,09,12,6.40
2007,02,12,09,13,8.10
2007,02,12,09,14,4.80
2007,02,12,09,15,6.40
2007,02,12,09,16,6.40
2007,02,12,09,17,3.20
2007,02,12,09,18,3.20
2007,02,12,09,19,3.20
2007,02,12,09,20,6.40
2007,02,12,09,21,6.40
2007,02,12,09,22,9.60
2007,02,12,09,23,6.40
2007,02,12,09,24,8.10
2007,02,12,09,25,6.40
2007,02,12,09,26,9.60
2007,02,12,09,27,6.40
2007,02,12,09,28,3.20
2007,02,12,09,29,3.20
2007,02,12,09,30,4.80
2007,02,12,09,31,3.20
2007,02,12,09,32,1.60
2007,02,12,09,33,1.60
2007,02,12,09,34,8.10
2007,02,12,09,35,6.40
2007,02,12,09,36,6.40
2007,02,12,09,37,8.10
2007,02,12,09,38,6.40
2007,02,12,09,39,9.60
2007,02,12,09,40,6.40
2007,02,12,09,41,4.80
2007,02,12,09,42,4.80
2007,02,12,09,43,4.80
2007,02,12,09,44,3.20
2007,02,12,09,45,3.20
2007,02,12,09,46,3.20
2007,02,12,09,47,3.20
2007,02,12,09,48,3.20
2007,02,12,09,49,6.40
2007,02,12,09,50,9.60
2007,02,12,09,51,9.60
2007,02,12,09,52,9.60
2007,02,12,09,53,8.10
2007,02,12,09,54,4.80
2007,02,12,09,55,4.80
2007,02,12,09,56,9.60
2007,02,12,09,57,9.60
2007,02,12,09,58,9.60
2007,02,12,09,59,9.60
2007,02,12,10,00,8.10
2007,02,12,10,01,8.10
2007,02,12,10,02,4.80
2007,02,12,10,03,8.10
2007,02,12,10,04,6.40
2007,02,12,10,05,6.40
2007,02,12,10,06,8.10
2007,02,12,10,07,11.30
2007,02,12,10,08,9.60
2007,02,12,10,09,6.40
2007,02,12,10,10,9.60
2007,02,12,10,11,8.10
2007,02,12,10,12,3.20
2007,02,12,10,13,3.20
2007,02,12,10,14,1.60
2007,02,12,10,15,4.80
2007,02,12,10,16,6.40
2007,02,12,10,17,8.10
2007,02,12,10,18,6.40
2007,02,12,10,19,6.40
2007,02,12,10,20,6.40
2007,02,12,10,21,8.10
2007,02,12,10,22,8.10
2007,02,12,10,23,4.80
2007,02,12,10,24,8.10
2007,02,12,10,25,6.40
2007,02,12,10,26,3.20
2007,02,12,10,27,9.60
2007,02,12,10,28,9.60
2007,02,12,10,29,11.30
2007,02,12,10,30,8.10
2007,02,12,10,31,6.40
2007,02,12,10,32,4.80
2007,02,12,10,33,4.80
2007,02,12,10,34,6.40
2007,02,12,10,35,6.40
2007,02,12,10,36,8.10
2007,02,12,10,37,4.80
2007,02,12,10,38,6.40
2007,02,12,10,39,4.80
2007,02,12,10,40,6.40
2007,02,12,10,41,4.80
2007,02,12,10,42,6.40
2007,02,12,10,43,3.20
2007,02,12,10,44,9.60
2007,02,12,10,45,8.10
2007,02,12,10,46,4.80
2007,02,12,10,47,8.10
2007,02,12,10,48,4.80
2007,02,12,10,49,8.10
2007,02,12,10,50,8.10
2007,02,12,10,51,6.40
2007,02,12,10,52,8.10
2007,02,12,10,53,8.10
2007,02,12,10,54,8.10
2007,02,12,10,55,6.40
2007,02,12,10,56,9.60
2007,02,12,10,57,3.20
2007,02,12,10,58,4.80
2007,02,12,10,59,4.80
2007,02,12,11,00,8.10
2007,02,12,11,01,8.10
2007,02,12,11,02,4.80
2007,02,12,11,03,6.40
2007,02,12,11,04,1.60
2007,02,12,11,05,6.40
2007,02,12,11,06,9.60
2007,02,12,11,07,8.10
2007,02,12,11,08,3.20
2007,02,12,11,09,6.40
2007,02,12,11,10,8.10
2007,02,12,11,11,6.40
2007,02,12,11,12,9.60
2007,02,12,11,13,8.10
2007,02,12,11,14,11.30
2007,02,12,11,15,11.30
2007,02,12,11,16,8.10
2007,02,12,11,17,6.40
2007,02,12,11,18,8.10
2007,02,12,11,19,6.40
2007,02,12,11,20,9.60
2007,02,12,11,21,11.30
2007,02,12,11,22,11.30
2007,02,12,11,23,4.80
2007,02,12,11,24,6.40
2007,02,12,11,25,0.00
2007,02,12,11,26,6.40
2007,02,12,11,27,11.30
2007,02,12,11,28,6.40
2007,02,12,11,29,8.10
2007,02,12,11,30,6.40
2007,02,12,11,31,8.10
2007,02,12,11,32,6.40
2007,02,12,11,33,4.80
2007,02,12,11,34,9.60
2007,02,12,11,35,11.30
2007,02,12,11,36,9.60
2007,02,12,11,37,8.10
2007,02,12,11,38,8.10
2007,02,12,11,39,8.10
2007,02,12,11,40,3.20
2007,02,12,11,41,4.80
2007,02,12,11,42,9.60
2007,02,12,11,43,8.10
2007,02,12,11,44,4.80
2007,02,12,11,45,1.60
2007,02,12,11,46,4.80
2007,02,12,11,47,6.40
2007,02,12,11,48,6.40
2007,02,12,11,49,4.80
2007,02,12,11,50,16.10
2007,02,12,11,51,9.60
2007,02,12,11,52,4.80
2007,02,12,11,53,6.40
2007,02,12,11,54,6.40
2007,02,12,11,55,6.40
2007,02,12,11,56,6.40
2007,02,12,11,57,8.10
2007,02,12,11,58,8.10
2007,02,12,11,59,6.40
2007,02,12,12,00,6.40
2007,02,12,12,01,6.40
2007,02,12,12,02,8.10
2007,02,12,12,03,11.30
2007,02,12,12,04,8.10
2007,02,12,12,05,9.60
2007,02,12,12,06,9.60
2007,02,12,12,07,8.10
2007,02,12,12,08,8.10
2007,02,12,12,09,8.10
2007,02,12,12,10,6.40
2007,02,12,12,11,6.40
2007,02,12,12,12,1.60
2007,02,12,12,13,8.10
2007,02,12,12,14,9.60
2007,02,12,12,15,6.40
2007,02,12,12,16,8.10
2007,02,12,12,17,6.40
2007,02,12,12,18,9.60
2007,02,12,12,19,6.40
2007,02,12,12,20,6.40
2007,02,12,12,21,1.60
2007,02,12,12,22,1.60
2007,02,12,12,23,3.20
2007,02,12,12,24,4.80
2007,02,12,12,25,8.10
2007,02,12,12,26,12.90
2007,02,12,12,27,16.10
2007,02,12,12,28,14.50
2007,02,12,12,29,8.10
2007,02,12,12,30,9.60
2007,02,12,12,31,14.50
2007,02,12,12,32,8.10
2007,02,12,12,33,6.40
2007,02,12,12,34,8.10
2007,02,12,12,35,1.60
2007,02,12,12,36,14.50
2007,02,12,12,37,11.30
2007,02,12,12,38,8.10
2007,02,12,12,39,11.30
2007,02,12,12,40,3.20
2007,02,12,12,41,4.80
2007,02,12,12,42,9.60
2007,02,12,12,43,14.50
2007,02,12,12,44,14.50
2007,02,12,12,45,3.20
2007,02,12,12,46,6.40
2007,02,12,12,47,6.40
2007,02,12,12,48,3.20
2007,02,12,12,49,9.60
2007,02,12,12,50,9.60
2007,02,12,12,51,6.40
2007,02,12,12,52,8.10
2007,02,12,12,53,6.40
2007,02,12,12,54,4.80
2007,02,12,12,55,11.30
2007,02,12,12,56,9.60
2007,02,12,12,57,4.80
2007,02,12,12,58,6.40
2007,02,12,12,59,12.90
2007,02,12,13,00,9.60
2007,02,12,13,01,6.40
2007,02,12,13,02,4.80
2007,02,12,13,03,6.40
2007,02,12,13,04,8.10
2007,02,12,13,05,3.20
2007,02,12,13,06,9.60
2007,02,12,13,07,8.10
2007,02,12,13,08,6.40
2007,02,12,13,09,8.10
2007,02,12,13,10,6.40
2007,02,12,13,11,11.30
2007,02,12,13,12,11.30
2007,02,12,13,13,8.10
2007,02,12,13,14,6.40
2007,02,12,13,15,6.40
2007,02,12,13,16,8.10
2007,02,12,13,17,8.10
2007,02,12,13,18,11.30
2007,02,12,13,19,14.50
2007,02,12,13,20,11.30
2007,02,12,13,21,11.30
2007,02,12,13,22,14.50
2007,02,12,13,23,9.60
2007,02,12,13,24,6.40
2007,02,12,13,25,4.80
2007,02,12,13,26,4.80
2007,02,12,13,27,8.10
2007,02,12,13,28,9.60
2007,02,12,13,29,14.50
2007,02,12,13,30,11.30
2007,02,12,13,31,9.60
2007,02,12,13,32,8.10
2007,02,12,13,33,9.60
2007,02,12,13,34,4.80
2007,02,12,13,35,6.40
2007,02,12,13,36,6.40
2007,02,12,13,37,12.90
2007,02,12,13,38,11.30
2007,02,12,13,39,6.40
2007,02,12,13,40,4.80
2007,02,12,13,41,4.80
2007,02,12,13,42,11.30
2007,02,12,13,43,8.10
2007,02,12,13,44,6.40
2007,02,12,13,45,11.30
2007,02,12,13,46,9.60
2007,02,12,13,47,9.60
2007,02,12,13,48,6.40
2007,02,12,13,49,4.80
2007,02,12,13,50,4.80
2007,02,12,13,51,6.40
2007,02,12,13,52,6.40
2007,02,12,13,53,6.40
2007,02,12,13,54,3.20
2007,02,12,13,55,4.80
2007,02,12,13,56,8.10
2007,02,12,13,57,4.80
2007,02,12,13,58,1.60
2007,02,12,13,59,6.40
2007,02,12,14,00,9.60
2007,02,12,14,01,8.10
2007,02,12,14,02,3.20
2007,02,12,14,03,3.20
2007,02,12,14,04,4.80
2007,02,12,14,05,4.80
2007,02,12,14,06,4.80
2007,02,12,14,07,4.80
2007,02,12,14,08,4.80
2007,02,12,14,09,3.20
2007,02,12,14,10,6.40
2007,02,12,14,11,4.80
2007,02,12,14,12,9.60
2007,02,12,14,13,9.60
2007,02,12,14,14,14.50
2007,02,12,14,15,6.40
2007,02,12,14,16,4.80
2007,02,12,14,17,3.20
2007,02,12,14,18,4.80
2007,02,12,14,19,4.80
2007,02,12,14,20,9.60
2007,02,12,14,21,8.10
2007,02,12,14,22,3.20
2007,02,12,14,23,3.20
2007,02,12,14,24,16.10
2007,02,12,14,25,8.10
2007,02,12,14,26,9.60
2007,02,12,14,27,9.60
2007,02,12,14,28,8.10
2007,02,12,14,29,4.80
2007,02,12,14,30,8.10
2007,02,12,14,31,4.80
2007,02,12,14,32,4.80
2007,02,12,14,33,8.10
2007,02,12,14,34,8.10
2007,02,12,14,35,8.10
2007,02,12,14,36,6.40
2007,02,12,14,37,6.40
2007,02,12,14,38,6.40
2007,02,12,14,39,6.40
2007,02,12,14,40,4.80
2007,02,12,14,41,9.60
2007,02,12,14,42,6.40
2007,02,12,14,43,4.80
2007,02,12,14,44,3.20
2007,02,12,14,45,8.10
2007,02,12,14,46,4.80
2007,02,12,14,47,4.80
2007,02,12,14,48,3.20
2007,02,12,14,49,6.40
2007,02,12,14,50,3.20
2007,02,12,14,51,4.80
2007,02,12,14,52,4.80
2007,02,12,14,53,1.60
2007,02,12,14,54,6.40
2007,02,12,14,55,6.40
2007,02,12,14,56,3.20
2007,02,12,14,57,4.80
2007,02,12,14,58,3.20
2007,02,12,14,59,6.40
2007,02,12,15,00,3.20
2007,02,12,15,01,6.40
2007,02,12,15,02,3.20
2007,02,12,15,03,6.40
2007,02,12,15,04,4.80
2007,02,12,15,05,4.80
2007,02,12,15,06,3.20
2007,02,12,15,07,1.60
2007,02,12,15,08,4.80
2007,02,12,15,09,8.10
2007,02,12,15,10,6.40
2007,02,12,15,11,4.80
2007,02,12,15,12,8.10
2007,02,12,15,13,8.10
2007,02,12,15,14,9.60
2007,02,12,15,15,9.60
2007,02,12,15,16,3.20
2007,02,12,15,17,4.80
2007,02,12,15,18,4.80
2007,02,12,15,19,4.80
2007,02,12,15,20,3.20
2007,02,12,15,21,8.10
2007,02,12,15,22,4.80
2007,02,12,15,23,4.80
2007,02,12,15,24,4.80
2007,02,12,15,25,4.80
2007,02,12,15,26,1.60
2007,02,12,15,27,3.20
2007,02,12,15,28,9.60
2007,02,12,15,29,9.60
2007,02,12,15,30,4.80
2007,02,12,15,31,4.80
2007,02,12,15,32,1.60
2007,02,12,15,33,8.10
2007,02,12,15,34,8.10
2007,02,12,15,35,4.80
2007,02,12,15,36,9.60
2007,02,12,15,37,6.40
2007,02,12,15,38,8.10
2007,02,12,15,39,6.40
2007,02,12,15,40,6.40
2007,02,12,15,41,4.80
2007,02,12,15,42,4.80
2007,02,12,15,43,3.20
2007,02,12,15,44,6.40
2007,02,12,15,45,6.40
2007,02,12,15,46,11.30
2007,02,12,15,47,8.10
2007,02,12,15,48,9.60
2007,02,12,15,49,9.60
2007,02,12,15,50,9.60
2007,02,12,15,51,8.10
2007,02,12,15,52,4.80
2007,02,12,15,53,8.10
2007,02,12,15,54,8.10
2007,02,12,15,55,12.90
2007,02,12,15,56,9.60
2007,02,12,15,57,9.60
2007,02,12,15,58,4.80
2007,02,12,15,59,4.80
2007,02,12,16,00,4.80
2007,02,12,16,01,8.10
2007,02,12,16,02,8.10
2007,02,12,16,03,6.40
2007,02,12,16,04,4.80
2007,02,12,16,05,8.10
2007,02,12,16,06,6.40
2007,02,12,16,07,6.40
2007,02,12,16,08,3.20
2007,02,12,16,09,4.80
2007,02,12,16,10,4.80
2007,02,12,16,11,3.20
2007,02,12,16,12,3.20
2007,02,12,16,13,8.10
2007,02,12,16,14,6.40
2007,02,12,16,15,4.80
2007,02,12,16,16,3.20
2007,02,12,16,17,6.40
2007,02,12,16,18,1.60
2007,02,12,16,19,9.60
2007,02,12,16,20,4.80
2007,02,12,16,21,4.80
2007,02,12,16,22,1.60
2007,02,12,16,23,3.20
2007,02,12,16,24,0.00
2007,02,12,16,25,6.40
2007,02,12,16,26,3.20
2007,02,12,16,27,1.60
2007,02,12,16,28,0.00
2007,02,12,16,29,0.00
2007,02,12,16,30,3.20
2007,02,12,16,31,3.20
2007,02,12,16,32,4.80
2007,02,12,16,33,8.10
2007,02,12,16,34,6.40
2007,02,12,16,35,6.40
2007,02,12,16,36,6.40
2007,02,12,16,37,4.80
2007,02,12,16,38,4.80
2007,02,12,16,39,4.80
2007,02,12,16,40,11.30
2007,02,12,16,41,8.10
2007,02,12,16,42,3.20
2007,02,12,16,43,4.80
2007,02,12,16,44,6.40
2007,02,12,16,45,3.20
2007,02,12,16,46,4.80
2007,02,12,16,47,6.40
2007,02,12,16,48,4.80
2007,02,12,16,49,4.80
2007,02,12,16,50,4.80
2007,02,12,16,51,6.40
2007,02,12,16,52,4.80
2007,02,12,16,53,4.80
2007,02,12,16,54,6.40
2007,02,12,16,55,6.40
2007,02,12,16,56,8.10
2007,02,12,16,57,3.20
2007,02,12,16,58,6.40
2007,02,12,16,59,4.80
2007,02,12,17,00,3.20
2007,02,12,17,01,4.80
2007,02,12,17,02,3.20
2007,02,12,17,03,3.20
2007,02,12,17,04,3.20
2007,02,12,17,05,1.60
2007,02,12,17,06,1.60
2007,02,12,17,07,1.60
2007,02,12,17,08,1.60
2007,02,12,17,09,3.20
2007,02,12,17,10,6.40
2007,02,12,17,11,8.10
2007,02,12,17,12,6.40
2007,02,12,17,13,3.20
2007,02,12,17,14,4.80
2007,02,12,17,15,4.80
2007,02,12,17,16,1.60
2007,02,12,17,17,1.60
2007,02,12,17,18,3.20
2007,02,12,17,19,4.80
2007,02,12,17,20,4.80
2007,02,12,17,21,4.80
2007,02,12,17,22,3.20
2007,02,12,17,23,4.80
2007,02,12,17,24,3.20
2007,02,12,17,25,9.60
2007,02,12,17,26,6.40
2007,02,12,17,27,3.20
2007,02,12,17,28,1.60
2007,02,12,17,29,3.20
2007,02,12,17,30,3.20
2007,02,12,17,31,3.20
2007,02,12,17,32,1.60
2007,02,12,17,33,1.60
2007,02,12,17,34,3.20
2007,02,12,17,35,3.20
2007,02,12,17,36,8.10
2007,02,12,17,37,3.20
2007,02,12,17,38,3.20
2007,02,12,17,39,4.80
2007,02,12,17,40,1.60
2007,02,12,17,41,8.10
2007,02,12,17,42,8.10
2007,02,12,17,43,3.20
2007,02,12,17,44,3.20
2007,02,12,17,45,4.80
2007,02,12,17,46,3.20
2007,02,12,17,47,3.20
2007,02,12,17,48,4.80
2007,02,12,17,49,4.80
2007,02,12,17,50,3.20
2007,02,12,17,51,4.80
2007,02,12,17,52,3.20
2007,02,12,17,53,6.40
2007,02,12,17,54,6.40
2007,02,12,17,55,6.40
2007,02,12,17,56,3.20
2007,02,12,17,57,4.80
2007,02,12,17,58,8.10
2007,02,12,17,59,6.40
2007,02,12,18,00,3.20
2007,02,12,18,01,3.20
2007,02,12,18,02,1.60
2007,02,12,18,03,3.20
2007,02,12,18,04,3.20
2007,02,12,18,05,6.40
2007,02,12,18,06,1.60
2007,02,12,18,07,1.60
2007,02,12,18,08,3.20
2007,02,12,18,09,1.60
2007,02,12,18,10,0.00
2007,02,12,18,11,3.20
2007,02,12,18,12,3.20
2007,02,12,18,13,1.60
2007,02,12,18,14,3.20
2007,02,12,18,15,3.20
2007,02,12,18,16,3.20
2007,02,12,18,17,1.60
2007,02,12,18,18,1.60
2007,02,12,18,19,4.80
2007,02,12,18,20,6.40
2007,02,12,18,21,3.20
2007,02,12,18,22,1.60
2007,02,12,18,23,1.60
2007,02,12,18,24,3.20
2007,02,12,18,25,4.80
2007,02,12,18,26,4.80
2007,02,12,18,27,1.60
2007,02,12,18,28,4.80
2007,02,12,18,29,3.20
2007,02,12,18,30,3.20
2007,02,12,18,31,4.80
2007,02,12,18,32,1.60
2007,02,12,18,33,6.40
2007,02,12,18,34,6.40
2007,02,12,18,35,3.20
2007,02,12,18,36,4.80
2007,02,12,18,37,6.40
2007,02,12,18,38,4.80
2007,02,12,18,39,4.80
2007,02,12,18,40,3.20
2007,02,12,18,41,1.60
2007,02,12,18,42,1.60
2007,02,12,18,43,1.60
2007,02,12,18,44,4.80
2007,02,12,18,45,4.80
2007,02,12,18,46,1.60
2007,02,12,18,47,0.00
2007,02,12,18,48,1.60
2007,02,12,18,49,1.60
2007,02,12,18,50,1.60
2007,02,12,18,51,0.00
2007,02,12,18,52,1.60
2007,02,12,18,53,3.20
2007,02,12,18,54,4.80
2007,02,12,18,55,4.80
2007,02,12,18,56,4.80
2007,02,12,18,57,4.80
2007,02,12,18,58,3.20
2007,02,12,18,59,1.60
2007,02,12,19,00,4.80
2007,02,12,19,01,4.80
2007,02,12,19,02,6.40
2007,02,12,19,03,4.80
2007,02,12,19,04,3.20
2007,02,12,19,05,4.80
2007,02,12,19,06,4.80
2007,02,12,19,07,4.80
2007,02,12,19,08,4.80
2007,02,12,19,09,8.10
2007,02,12,19,10,4.80
2007,02,12,19,11,4.80
2007,02,12,19,12,6.40
2007,02,12,19,13,6.40
2007,02,12,19,14,3.20
2007,02,12,19,15,1.60
2007,02,12,19,16,6.40
2007,02,12,19,17,6.40
2007,02,12,19,18,6.40
2007,02,12,19,19,3.20
2007,02,12,19,20,4.80
2007,02,12,19,21,4.80
2007,02,12,19,22,4.80
2007,02,12,19,23,6.40
2007,02,12,19,24,6.40
2007,02,12,19,25,6.40
2007,02,12,19,26,3.20
2007,02,12,19,27,3.20
2007,02,12,19,28,4.80
2007,02,12,19,29,4.80
2007,02,12,19,30,3.20
2007,02,12,19,31,3.20
2007,02,12,19,32,3.20
2007,02,12,19,33,4.80
2007,02,12,19,34,6.40
2007,02,12,19,35,4.80
2007,02,12,19,36,4.80
2007,02,12,19,37,3.20
2007,02,12,19,38,3.20
2007,02,12,19,39,3.20
2007,02,12,19,40,4.80
2007,02,12,19,41,4.80
2007,02,12,19,42,4.80
2007,02,12,19,43,4.80
2007,02,12,19,44,3.20
2007,02,12,19,45,4.80
2007,02,12,19,46,8.10
2007,02,12,19,47,8.10
2007,02,12,19,48,4.80
2007,02,12,19,49,6.40
2007,02,12,19,50,6.40
2007,02,12,19,51,4.80
2007,02,12,19,52,4.80
2007,02,12,19,53,3.20
2007,02,12,19,54,3.20
2007,02,12,19,55,4.80